Time,TemperatureF,DewpointF,PressureIn,WindDirection,WindDirectionDegrees,WindSpeedMPH,WindSpeedGustMPH,Humidity,HourlyPrecipIn,Conditions,Clouds,dailyrainin,SoftwareType,DateUTC
2013-08-19 00:11:00,63.4,61.0,30.14,NW,319,0.0,0.0,91,0.00,,,0.00,weatherlink.com 1.10,2013-08-19 04:11:00,
2013-08-19 00:25:00,63.4,61.0,30.14,NW,319,0.0,0.0,91,0.00,,,0.00,weatherlink.com 1.10,2013-08-19 04:25:00,
2013-08-19 00:40:00,63.3,61.0,30.13,NW,319,0.0,0.0,92,0.00,,,0.00,weatherlink.com 1.10,2013-08-19 04:40:00,
2013-08-19 00:54:00,63.2,61.0,30.13,NW,319,0.0,0.0,92,0.00,,,0.00,weatherlink.com 1.10,2013-08-19 04:54:00,
2013-08-19 01:10:00,63.0,60.0,30.13,NW,319,0.0,0.0,91,0.00,,,0.00,weatherlink.com 1.10,2013-08-19 05:10:00,
2013-08-19 01:26:00,62.7,60.0,30.13,NW,319,0.0,0.0,92,0.00,,,0.00,weatherlink.com 1.10,2013-08-19 05:26:00,
2013-08-19 01:42:00,62.7,60.0,30.13,NW,319,0.0,0.0,92,0.00,,,0.00,weatherlink.com 1.10,2013-08-19 05:42:00,
2013-08-19 01:58:00,62.4,60.0,30.13,NW,319,0.0,0.0,92,0.00,,,0.00,weatherlink.com 1.10,2013-08-19 05:58:00,
2013-08-19 02:14:00,62.5,60.0,30.13,NW,319,0.0,0.0,93,0.00,,,0.00,weatherlink.com 1.10,2013-08-19 06:14:00,
2013-08-19 02:30:00,62.6,61.0,30.12,NW,319,0.0,0.0,93,0.00,,,0.00,weatherlink.com 1.10,2013-08-19 06:30:00,
2013-08-19 02:47:00,62.7,61.0,30.12,NW,319,0.0,0.0,93,0.00,,,0.00,weatherlink.com 1.10,2013-08-19 06:47:00,
2013-08-19 03:03:00,62.6,61.0,30.12,NW,319,0.0,0.0,94,0.00,,,0.00,weatherlink.com 1.10,2013-08-19 07:03:00,
2013-08-19 03:19:00,62.5,60.0,30.11,NW,319,0.0,0.0,93,0.00,,,0.00,weatherlink.com 1.10,2013-08-19 07:19:00,
2013-08-19 03:35:00,62.3,61.0,30.11,NW,319,0.0,0.0,94,0.00,,,0.00,weatherlink.com 1.10,2013-08-19 07:35:00,
2013-08-19 03:54:00,61.9,60.0,30.11,NW,319,0.0,0.0,94,0.00,,,0.00,weatherlink.com 1.10,2013-08-19 07:54:00,
2013-08-19 04:09:00,61.7,60.0,30.11,NW,319,0.0,0.0,94,0.00,,,0.00,weatherlink.com 1.10,2013-08-19 08:09:00,
2013-08-19 04:23:00,61.4,60.0,30.11,NW,319,0.0,0.0,95,0.00,,,0.00,weatherlink.com 1.10,2013-08-19 08:23:00,
2013-08-19 04:38:00,61.1,60.0,30.11,NW,319,0.0,0.0,95,0.00,,,0.00,weatherlink.com 1.10,2013-08-19 08:38:00,
2013-08-19 04:52:00,60.8,60.0,30.11,NW,319,0.0,0.0,96,0.00,,,0.00,weatherlink.com 1.10,2013-08-19 08:52:00,
2013-08-19 05:07:00,60.9,60.0,30.11,NW,319,0.0,0.0,96,0.00,,,0.00,weatherlink.com 1.10,2013-08-19 09:07:00,
2013-08-19 05:21:00,61.1,60.0,30.12,NW,319,0.0,0.0,96,0.00,,,0.00,weatherlink.com 1.10,2013-08-19 09:21:00,
2013-08-19 05:36:00,61.0,60.0,30.12,NW,319,0.0,0.0,96,0.00,,,0.00,weatherlink.com 1.10,2013-08-19 09:36:00,
2013-08-19 05:50:00,60.8,59.0,30.12,NW,319,0.0,0.0,95,0.00,,,0.00,weatherlink.com 1.10,2013-08-19 09:50:00,
2013-08-19 06:05:00,60.5,59.0,30.12,NW,319,0.0,0.0,96,0.00,,,0.00,weatherlink.com 1.10,2013-08-19 10:05:00,
2013-08-19 06:22:00,60.3,59.0,30.13,NW,319,0.0,0.0,96,0.00,,,0.00,weatherlink.com 1.10,2013-08-19 10:22:00,
2013-08-19 06:38:00,60.0,59.0,30.13,NW,319,0.0,0.0,97,0.00,,,0.00,weatherlink.com 1.10,2013-08-19 10:38:00,
2013-08-19 06:54:00,60.0,59.0,30.13,NW,319,0.0,0.0,97,0.00,,,0.00,weatherlink.com 1.10,2013-08-19 10:54:00,
2013-08-19 07:10:00,60.2,59.0,30.13,NW,319,0.0,0.0,97,0.00,,,0.00,weatherlink.com 1.10,2013-08-19 11:10:00,
2013-08-19 07:26:00,60.4,60.0,30.13,NW,319,0.0,0.0,97,0.00,,,0.00,weatherlink.com 1.10,2013-08-19 11:26:00,
2013-08-19 07:42:00,60.9,60.0,30.13,NW,319,0.0,0.0,97,0.00,,,0.00,weatherlink.com 1.10,2013-08-19 11:42:00,
2013-08-19 07:58:00,61.4,61.0,30.14,NW,319,0.0,0.0,97,0.00,,,0.00,weatherlink.com 1.10,2013-08-19 11:58:00,
2013-08-19 08:17:00,62.6,61.0,30.13,NW,319,0.0,0.0,95,0.00,,,0.00,weatherlink.com 1.10,2013-08-19 12:17:00,
2013-08-19 08:33:00,63.8,62.0,30.13,NW,319,0.0,0.0,94,0.00,,,0.00,weatherlink.com 1.10,2013-08-19 12:33:00,
2013-08-19 08:49:00,66.4,63.0,30.12,SSE,162,0.0,1.0,88,0.00,,,0.00,weatherlink.com 1.10,2013-08-19 12:49:00,
2013-08-19 09:05:00,68.9,64.0,30.12,SSW,201,0.0,0.0,83,0.00,,,0.00,weatherlink.com 1.10,2013-08-19 13:05:00,
2013-08-19 09:19:00,70.6,64.0,30.12,West,268,2.0,2.0,81,0.00,,,0.00,weatherlink.com 1.10,2013-08-19 13:19:00,
2013-08-19 09:34:00,71.3,64.0,30.11,West,271,1.0,3.0,77,0.00,,,0.00,weatherlink.com 1.10,2013-08-19 13:34:00,
2013-08-19 09:48:00,72.0,64.0,30.11,SSE,148,0.0,2.0,77,0.00,,,0.00,weatherlink.com 1.10,2013-08-19 13:48:00,
2013-08-19 10:03:00,73.3,65.0,30.11,WSW,240,0.0,2.0,76,0.00,,,0.00,weatherlink.com 1.10,2013-08-19 14:03:00,
2013-08-19 10:19:00,74.1,64.0,30.11,West,271,0.0,2.0,70,0.00,,,0.00,weatherlink.com 1.10,2013-08-19 14:19:00,
2013-08-19 10:36:00,74.4,64.0,30.10,NW,318,2.0,6.0,70,0.00,,,0.00,weatherlink.com 1.10,2013-08-19 14:36:00,
2013-08-19 10:52:00,75.7,64.0,30.10,NE,38,0.0,2.0,67,0.00,,,0.00,weatherlink.com 1.10,2013-08-19 14:52:00,
2013-08-19 11:08:00,76.1,63.0,30.10,West,264,2.0,5.0,65,0.00,,,0.00,weatherlink.com 1.10,2013-08-19 15:08:00,
2013-08-19 11:24:00,76.7,64.0,30.10,North,2,0.0,2.0,66,0.00,,,0.00,weatherlink.com 1.10,2013-08-19 15:24:00,
2013-08-19 11:40:00,77.7,63.0,30.10,West,278,1.0,6.0,61,0.00,,,0.00,weatherlink.com 1.10,2013-08-19 15:40:00,
2013-08-19 11:56:00,78.0,62.0,30.09,WSW,258,3.0,6.0,58,0.00,,,0.00,weatherlink.com 1.10,2013-08-19 15:56:00,
2013-08-19 12:13:00,77.5,61.0,30.09,WSW,239,0.0,3.0,57,0.00,,,0.00,weatherlink.com 1.10,2013-08-19 16:13:00,
2013-08-19 12:29:00,79.5,62.0,30.09,WNW,282,1.0,3.0,55,0.00,,,0.00,weatherlink.com 1.10,2013-08-19 16:29:00,
2013-08-19 12:45:00,79.8,57.0,30.08,NNW,332,1.0,8.0,46,0.00,,,0.00,weatherlink.com 1.10,2013-08-19 16:45:00,
2013-08-19 13:02:00,80.3,56.0,30.08,NNW,340,0.0,4.0,44,0.00,,,0.00,weatherlink.com 1.10,2013-08-19 17:02:00,
2013-08-19 13:18:00,80.1,60.0,30.07,West,271,4.0,4.0,50,0.00,,,0.00,weatherlink.com 1.10,2013-08-19 17:18:00,
2013-08-19 13:34:00,79.6,57.0,30.07,NW,304,1.0,7.0,46,0.00,,,0.00,weatherlink.com 1.10,2013-08-19 17:34:00,
2013-08-19 13:50:00,80.1,58.0,30.07,NNW,343,1.0,4.0,47,0.00,,,0.00,weatherlink.com 1.10,2013-08-19 17:50:00,
2013-08-19 14:06:00,80.2,60.0,30.06,WSW,250,0.0,5.0,50,0.00,,,0.00,weatherlink.com 1.10,2013-08-19 18:06:00,
2013-08-19 14:22:00,80.8,60.0,30.06,ENE,61,1.0,6.0,49,0.00,,,0.00,weatherlink.com 1.10,2013-08-19 18:22:00,
2013-08-19 14:39:00,81.1,60.0,30.06,WSW,253,3.0,4.0,48,0.00,,,0.00,weatherlink.com 1.10,2013-08-19 18:39:00,
2013-08-19 14:55:00,81.2,58.0,30.05,WSW,255,2.0,8.0,45,0.00,,,0.00,weatherlink.com 1.10,2013-08-19 18:55:00,
2013-08-19 15:11:00,82.5,61.0,30.05,SW,233,1.0,3.0,49,0.00,,,0.00,weatherlink.com 1.10,2013-08-19 19:11:00,
2013-08-19 15:27:00,82.9,58.0,30.05,NNE,18,0.0,3.0,43,0.00,,,0.00,weatherlink.com 1.10,2013-08-19 19:27:00,
2013-08-19 15:43:00,83.2,58.0,30.05,WSW,247,0.0,6.0,43,0.00,,,0.00,weatherlink.com 1.10,2013-08-19 19:43:00,
2013-08-19 16:02:00,82.5,61.0,30.05,WSW,257,0.0,3.0,49,0.00,,,0.00,weatherlink.com 1.10,2013-08-19 20:02:00,
2013-08-19 16:18:00,83.0,62.0,30.05,NNW,333,2.0,4.0,50,0.00,,,0.00,weatherlink.com 1.10,2013-08-19 20:18:00,
2013-08-19 16:34:00,82.9,63.0,30.05,SW,232,0.0,3.0,52,0.00,,,0.00,weatherlink.com 1.10,2013-08-19 20:34:00,
2013-08-19 16:50:00,82.3,61.0,30.05,WNW,285,4.0,6.0,49,0.00,,,0.00,weatherlink.com 1.10,2013-08-19 20:50:00,
2013-08-19 17:07:00,81.9,62.0,30.05,SW,230,3.0,4.0,51,0.00,,,0.00,weatherlink.com 1.10,2013-08-19 21:07:00,
2013-08-19 17:23:00,81.0,59.0,30.05,North,3,1.0,3.0,48,0.00,,,0.00,weatherlink.com 1.10,2013-08-19 21:23:00,
2013-08-19 17:39:00,80.2,60.0,30.04,NW,322,0.0,4.0,51,0.00,,,0.00,weatherlink.com 1.10,2013-08-19 21:39:00,
2013-08-19 17:55:00,80.2,59.0,30.04,NW,320,0.0,3.0,49,0.00,,,0.00,weatherlink.com 1.10,2013-08-19 21:55:00,
2013-08-19 18:11:00,79.6,63.0,30.04,NW,309,0.0,6.0,56,0.00,,,0.00,weatherlink.com 1.10,2013-08-19 22:11:00,
2013-08-19 18:27:00,78.9,59.0,30.04,NW,318,0.0,3.0,50,0.00,,,0.00,weatherlink.com 1.10,2013-08-19 22:27:00,
2013-08-19 18:44:00,78.1,60.0,30.04,West,269,0.0,1.0,53,0.00,,,0.00,weatherlink.com 1.10,2013-08-19 22:44:00,
2013-08-19 19:01:00,77.0,60.0,30.04,NNW,333,0.0,0.0,55,0.00,,,0.00,weatherlink.com 1.10,2013-08-19 23:01:00,
2013-08-19 19:15:00,76.2,58.0,30.04,NNE,30,0.0,1.0,54,0.00,,,0.00,weatherlink.com 1.10,2013-08-19 23:15:00,
2013-08-19 19:30:00,75.4,61.0,30.04,NNE,33,0.0,0.0,60,0.00,,,0.00,weatherlink.com 1.10,2013-08-19 23:30:00,
2013-08-19 19:44:00,73.6,59.0,30.04,NNE,33,0.0,0.0,60,0.00,,,0.00,weatherlink.com 1.10,2013-08-19 23:44:00,
2013-08-19 19:58:00,72.1,59.0,30.03,NNE,33,0.0,0.0,63,0.00,,,0.00,weatherlink.com 1.10,2013-08-19 23:58:00,
2013-08-19 20:15:00,70.5,59.0,30.04,NNE,33,0.0,0.0,66,0.00,,,0.00,weatherlink.com 1.10,2013-08-20 00:15:00,
2013-08-19 20:31:00,69.3,60.0,30.04,NNE,33,0.0,0.0,72,0.00,,,0.00,weatherlink.com 1.10,2013-08-20 00:31:00,
2013-08-19 20:47:00,68.2,59.0,30.05,NNE,33,0.0,0.0,73,0.00,,,0.00,weatherlink.com 1.10,2013-08-20 00:47:00,
2013-08-19 21:03:00,67.2,59.0,30.05,NNE,33,0.0,0.0,75,0.00,,,0.00,weatherlink.com 1.10,2013-08-20 01:03:00,
2013-08-19 21:19:00,66.5,60.0,30.06,NNE,33,0.0,0.0,81,0.00,,,0.00,weatherlink.com 1.10,2013-08-20 01:19:00,
2013-08-19 21:35:00,66.3,60.0,30.06,NNE,33,0.0,0.0,81,0.00,,,0.00,weatherlink.com 1.10,2013-08-20 01:35:00,
2013-08-19 21:52:00,66.2,60.0,30.06,NNE,33,0.0,0.0,81,0.00,,,0.00,weatherlink.com 1.10,2013-08-20 01:52:00,
2013-08-19 22:08:00,66.2,62.0,30.06,NNE,33,0.0,0.0,85,0.00,,,0.00,weatherlink.com 1.10,2013-08-20 02:08:00,
2013-08-19 22:24:00,66.1,62.0,30.06,NNE,33,0.0,0.0,86,0.00,,,0.00,weatherlink.com 1.10,2013-08-20 02:24:00,
2013-08-19 22:40:00,65.6,63.0,30.07,NNE,33,0.0,0.0,90,0.00,,,0.00,weatherlink.com 1.10,2013-08-20 02:40:00,
2013-08-19 22:56:00,65.3,62.0,30.07,NNE,33,0.0,1.0,90,0.00,,,0.00,weatherlink.com 1.10,2013-08-20 02:56:00,
2013-08-19 23:13:00,64.8,62.0,30.07,NNE,23,0.0,0.0,90,0.00,,,0.00,weatherlink.com 1.10,2013-08-20 03:13:00,
2013-08-19 23:29:00,64.4,61.0,30.07,NNE,25,0.0,0.0,90,0.00,,,0.00,weatherlink.com 1.10,2013-08-20 03:29:00,
2013-08-19 23:45:00,63.9,61.0,30.07,NNE,25,0.0,0.0,91,0.00,,,0.00,weatherlink.com 1.10,2013-08-20 03:45:00,